�N����,����,�~����,�C��,���x,�C��,����,���ϕ���,�ő�u�ԕ���,�ő厞����,���˗�,�I�_���x,�n�����x,�ő啗���N��,DTYPE
"19/09/24","00:10",0.0,21.7,78.0,1007.4,334.6,1.1,1.8,331.7,0.00,17.7,23.2,"00:06:24",1
"19/09/24","00:20",0.0,21.5,79.0,1007.1,333.9,1.2,2.0,327.9,0.00,17.7,23.0,"00:18:00",1
"19/09/24","00:30",0.0,21.4,81.5,1007.1,316.1,1.1,1.6,312.8,0.00,18.1,22.9,"00:21:52",1
"19/09/24","00:40",0.0,21.1,82.6,1007.4,316.0,1.1,1.4,319.6,0.00,18.1,23.1,"00:38:00",1
"19/09/24","00:50",0.0,20.9,83.6,1007.6,309.7,1.0,1.6,325.4,0.00,18.1,23.1,"00:41:04",1
"19/09/24","01:00",0.0,20.9,84.1,1007.4,318.5,1.1,1.4,332.4,0.00,18.2,22.9,"00:53:44",1
"19/09/24","01:10",0.0,20.9,84.7,1007.4,315.0,1.1,2.1,334.5,0.00,18.3,23.0,"01:02:56",1
"19/09/24","01:20",0.0,20.8,84.6,1007.4,301.8,0.6,1.2,319.0,0.00,18.2,22.8,"01:16:08",1
"19/09/24","01:30",0.0,20.9,84.9,1007.8,296.9,0.6,1.4,311.1,0.00,18.3,22.9,"01:27:36",1
"19/09/24","01:40",0.0,20.9,84.9,1007.6,334.4,1.2,1.6,341.6,0.00,18.3,23.1,"01:32:32",1
"19/09/24","01:50",0.0,20.9,85.3,1007.6,325.0,1.2,1.9,322.5,0.00,18.4,22.9,"01:40:56",1
"19/09/24","02:00",0.0,20.8,85.7,1007.6,324.3,1.2,1.7,318.4,0.00,18.4,22.9,"01:53:20",1
"19/09/24","02:10",0.0,20.7,85.7,1007.4,322.0,1.2,1.8,339.3,0.00,18.3,22.9,"02:06:40",1
"19/09/24","02:20",0.0,20.7,86.1,1007.6,329.1,1.3,2.1,335.0,0.00,18.3,22.9,"02:12:56",1
"19/09/24","02:30",0.0,20.7,86.2,1007.6,312.6,1.1,2.1,317.1,0.00,18.4,22.9,"02:23:28",1
"19/09/24","02:40",0.0,20.7,86.0,1007.4,300.5,0.8,1.3,326.9,0.00,18.3,22.8,"02:34:56",1
"19/09/24","02:50",0.0,20.7,86.0,1007.6,323.9,1.3,1.9,322.4,0.00,18.3,22.7,"02:45:36",1
"19/09/24","03:00",0.0,20.7,86.1,1007.4,321.5,1.1,1.6,338.2,0.00,18.3,22.5,"02:55:52",1
"19/09/24","03:10",0.2,20.7,86.1,1007.1,312.0,1.0,1.3,318.6,0.00,18.3,22.7,"03:07:44",1
"19/09/24","03:20",0.0,20.6,85.9,1007.4,313.6,1.1,1.7,320.5,0.00,18.2,22.7,"03:13:36",1
"19/09/24","03:30",0.0,20.7,86.2,1007.4,316.7,1.0,1.4,313.2,0.00,18.4,22.9,"03:25:20",1
"19/09/24","03:40",0.0,20.8,86.4,1007.4,329.3,1.1,1.7,320.8,0.00,18.5,22.7,"03:38:24",1
"19/09/24","03:50",0.0,20.6,86.6,1007.6,317.4,1.2,1.8,320.8,0.00,18.3,22.6,"03:46:48",1
"19/09/24","04:00",0.0,20.5,86.5,1007.6,324.5,1.2,2.5,322.2,0.00,18.2,22.8,"03:52:00",1
"19/09/24","04:10",0.0,20.6,86.1,1007.6,321.3,1.3,2.7,320.5,0.00,18.2,22.7,"04:09:04",1
"19/09/24","04:20",0.0,20.7,85.6,1007.8,322.2,1.6,2.5,320.2,0.00,18.2,22.7,"04:15:52",1
"19/09/24","04:30",0.0,20.7,85.0,1007.6,321.3,1.7,2.7,307.9,0.00,18.1,22.7,"04:22:08",1
"19/09/24","04:40",0.0,20.8,84.4,1007.8,319.2,1.3,2.5,329.0,0.00,18.1,22.6,"04:33:44",1
"19/09/24","04:50",0.0,20.8,83.9,1007.8,322.7,1.1,2.6,343.1,0.00,18.0,22.6,"04:49:36",1
"19/09/24","05:00",0.0,20.7,83.9,1007.6,321.3,1.2,1.8,335.1,0.00,17.9,22.7,"04:50:24",1
"19/09/24","05:10",0.0,20.6,84.1,1007.8,292.3,1.0,1.7,316.4,0.00,17.9,22.8,"05:03:12",1
"19/09/24","05:20",0.0,20.5,84.3,1007.8,298.0,0.8,1.2,308.6,0.00,17.8,22.6,"05:18:56",1
"19/09/24","05:30",0.0,20.3,84.8,1008.3,326.0,1.0,1.3,332.2,0.00,17.7,22.5,"05:21:28",1
"19/09/24","05:40",0.0,20.2,85.5,1008.1,336.7,1.2,1.6,328.9,0.00,17.7,22.6,"05:30:02",1
"19/09/24","05:50",0.0,20.0,86.6,1008.3,330.8,1.1,1.9,321.2,0.00,17.7,22.4,"05:41:04",1
"19/09/24","06:00",0.0,20.0,87.1,1008.3,328.8,1.5,2.0,321.1,0.00,17.8,22.4,"05:53:52",1
"19/09/24","06:10",0.0,19.8,87.8,1008.1,338.5,1.1,1.9,335.6,0.00,17.8,22.6,"06:02:24",1
"19/09/24","06:20",0.0,19.5,88.1,1007.8,322.5,1.1,1.6,332.6,0.00,17.5,22.2,"06:17:28",1
"19/09/24","06:30",0.0,19.3,89.1,1008.1,327.0,1.1,1.7,322.2,0.00,17.5,22.4,"06:23:28",1
"19/09/24","06:40",0.0,19.4,89.3,1008.1,333.0,1.1,1.8,338.8,0.00,17.6,22.3,"06:38:40",1
"19/09/24","06:50",0.0,19.5,89.8,1008.1,257.0,0.3,1.8,324.4,0.00,17.8,22.6,"06:40:08",1
"19/09/24","07:00",0.0,19.9,89.9,1008.8,286.7,0.6,0.9,303.1,0.00,18.2,22.1,"06:52:00",1
"19/09/24","07:10",0.0,20.5,88.5,1008.6,272.7,0.7,1.4,308.5,0.01,18.6,22.3,"07:09:36",1
"19/09/24","07:20",0.0,20.5,88.2,1008.6,286.9,1.1,1.9,316.1,0.03,18.5,22.3,"07:10:48",1
"19/09/24","07:30",0.0,20.9,87.5,1008.8,280.6,1.0,2.6,230.8,0.03,18.8,22.3,"07:26:56",1
"19/09/24","07:40",0.0,21.4,85.6,1009.3,329.4,1.2,2.2,335.4,0.06,18.9,22.1,"07:35:36",1
"19/09/24","07:50",0.0,21.5,84.0,1009.3,314.1,1.2,2.5,338.3,0.07,18.7,22.5,"07:47:28",1
"19/09/24","08:00",0.2,21.4,83.3,1009.7,319.3,1.6,3.2,353.1,0.06,18.5,22.5,"07:56:16",1
"19/09/24","08:10",0.0,21.7,82.8,1009.7,299.1,1.3,4.5,330.8,0.07,18.7,22.5,"08:00:56",1
"19/09/24","08:20",0.0,21.9,82.0,1009.3,253.4,0.8,2.4,228.5,0.09,18.7,22.5,"08:19:12",1
"19/09/24","08:30",0.0,22.0,81.4,1009.3,242.7,1.1,2.4,233.5,0.05,18.7,22.6,"08:20:56",1
"19/09/24","08:40",0.0,22.1,80.9,1009.5,244.8,0.8,2.9,232.6,0.08,18.7,22.5,"08:38:56",1
"19/09/24","08:50",0.0,22.4,79.9,1009.5,283.4,1.2,2.6,233.5,0.07,18.8,22.6,"08:40:32",1
"19/09/24","09:00",0.0,22.6,80.0,1009.5,292.8,1.5,2.5,238.5,0.12,19.0,22.6,"08:50:16",1
"19/09/24","09:10",0.0,22.6,79.1,1009.3,323.8,2.1,4.0,324.5,0.16,18.8,22.8,"09:06:48",1
"19/09/24","09:20",0.0,22.7,79.4,1009.5,318.7,1.7,3.5,325.0,0.15,19.0,23.0,"09:14:24",1
"19/09/24","09:30",0.0,22.9,79.1,1009.5,311.5,1.3,2.7,334.0,0.17,19.1,23.0,"09:21:04",1
"19/09/24","09:40",0.0,23.0,78.4,1009.3,289.5,1.3,2.6,252.0,0.16,19.1,22.8,"09:35:20",1
"19/09/24","09:50",0.0,22.9,79.1,1009.7,286.9,1.1,2.9,332.8,0.14,19.1,23.2,"09:45:28",1
"19/09/24","10:00",0.0,23.1,78.4,1009.3,317.0,1.5,3.4,312.8,0.17,19.2,23.2,"09:52:00",1
"19/09/24","10:10",0.0,23.1,78.2,1009.7,306.3,1.3,3.6,241.6,0.16,19.1,23.3,"10:05:28",1
"19/09/24","10:20",0.0,23.2,77.0,1009.5,272.2,1.1,2.4,233.5,0.16,19.0,23.5,"10:17:52",1
"19/09/24","10:30",0.0,23.2,77.2,1009.3,274.7,1.2,3.3,237.3,0.15,19.0,23.4,"10:26:24",1
"19/09/24","10:40",0.0,23.3,77.4,1009.3,277.1,1.3,2.2,251.6,0.16,19.2,23.5,"10:33:20",1
"19/09/24","10:50",0.0,23.3,77.1,1009.3,274.9,1.2,3.1,243.4,0.15,19.1,23.7,"10:49:28",1
"19/09/24","11:00",0.0,23.5,77.6,1009.0,271.7,1.0,1.9,241.6,0.16,19.4,23.8,"10:54:56",1
"19/09/24","11:10",0.0,23.4,76.2,1009.3,260.8,1.2,2.8,233.6,0.16,19.0,23.8,"11:09:36",1
"19/09/24","11:20",0.0,23.4,76.0,1008.6,290.5,1.0,2.2,324.7,0.13,19.0,23.8,"11:15:44",1
"19/09/24","11:30",0.0,23.8,75.5,1008.8,312.4,1.1,1.9,330.9,0.13,19.3,23.7,"11:24:56",1
"19/09/24","11:40",0.0,24.2,75.4,1008.6,288.4,1.0,1.8,236.4,0.18,19.6,23.9,"11:35:20",1
"19/09/24","11:50",0.0,24.0,75.1,1008.6,273.2,1.0,1.9,331.0,0.19,19.4,24.2,"11:40:24",1
"19/09/24","12:00",0.0,24.3,74.8,1008.3,255.9,1.0,2.9,231.6,0.26,19.6,24.2,"11:57:12",1
"19/09/24","12:10",0.0,24.4,73.9,1008.1,243.1,1.5,3.4,235.5,0.27,19.5,24.2,"12:00:24",1
"19/09/24","12:20",0.0,24.2,73.7,1008.1,267.6,1.3,3.6,225.8,0.20,19.2,24.5,"12:17:44",1
"19/09/24","12:30",0.0,25.0,71.7,1007.8,226.6,1.5,3.9,240.9,0.42,19.6,24.5,"12:25:04",1
"19/09/24","12:40",0.2,25.3,72.5,1007.6,197.8,0.8,2.9,220.5,0.24,20.0,24.8,"12:31:04",1
"19/09/24","12:50",0.0,25.1,72.3,1007.6,328.2,0.7,2.5,346.1,0.17,19.8,24.8,"12:40:48",1
"19/09/24","13:00",0.0,25.6,71.2,1007.1,232.8,0.7,2.4,216.2,0.29,20.0,24.8,"12:59:28",1
"19/09/24","13:10",0.0,25.4,70.8,1007.1,247.4,0.7,1.7,219.4,0.30,19.8,24.9,"13:01:12",1
"19/09/24","13:20",0.0,25.9,69.1,1006.7,275.8,1.1,2.2,348.1,0.30,19.8,25.4,"13:17:44",1
"19/09/24","13:30",0.0,25.7,68.2,1006.4,334.8,1.5,3.7,344.5,0.23,19.4,25.2,"13:21:12",1
"19/09/24","13:40",0.0,25.8,68.8,1006.7,336.8,1.2,3.4,328.3,0.17,19.7,25.3,"13:33:28",1
"19/09/24","13:50",0.0,26.0,67.6,1006.7,327.0,1.2,2.5,353.0,0.22,19.6,25.4,"13:44:08",1
"19/09/24","14:00",0.0,25.5,68.6,1006.7,302.0,1.5,3.6,351.0,0.22,19.3,25.4,"13:53:20",1
"19/09/24","14:10",0.0,25.7,69.6,1006.4,286.1,1.3,3.7,235.3,0.21,19.8,25.4,"14:06:48",1
"19/09/24","14:20",0.0,25.6,69.4,1006.2,297.1,1.6,3.7,334.1,0.24,19.6,25.3,"14:19:12",1
"19/09/24","14:30",0.0,25.2,70.2,1007.1,287.4,1.5,3.6,308.3,0.08,19.4,25.6,"14:28:32",1
"19/09/24","14:40",0.0,25.3,70.4,1007.4,335.9,2.7,5.0,334.3,0.09,19.6,25.5,"14:35:52",1
"19/09/24","14:50",0.0,25.1,69.5,1007.4,329.4,2.2,5.9,346.7,0.09,19.2,25.3,"14:48:24",1
"19/09/24","15:00",0.0,24.7,71.1,1006.9,323.1,2.1,5.7,346.3,0.11,19.2,25.5,"14:56:56",1
"19/09/24","15:10",0.0,24.7,71.7,1007.6,330.1,2.1,4.0,329.2,0.10,19.3,25.4,"15:01:04",1
"19/09/24","15:20",0.0,24.3,71.4,1007.8,343.9,2.6,5.8,347.3,0.07,18.8,25.4,"15:15:52",1
"19/09/24","15:30",0.0,23.9,72.3,1007.6,330.5,2.2,4.1,344.8,0.07,18.7,25.3,"15:21:52",1
"19/09/24","15:40",0.0,23.7,73.2,1007.8,321.1,2.7,6.4,338.3,0.06,18.7,25.1,"15:39:20",1
"19/09/24","15:50",0.0,23.5,74.3,1007.8,329.3,3.1,6.5,335.0,0.03,18.7,24.9,"15:43:36",1
"19/09/24","16:00",0.0,23.4,74.5,1007.8,330.1,3.1,6.5,334.6,0.04,18.7,24.9,"15:56:56",1
"19/09/24","16:10",0.0,23.5,74.8,1007.8,328.0,2.5,5.7,347.4,0.04,18.8,24.6,"16:04:48",1
"19/09/24","16:20",0.0,23.4,74.9,1008.1,331.6,2.3,4.9,331.1,0.03,18.7,24.6,"16:14:32",1
"19/09/24","16:30",0.0,23.4,75.1,1007.6,338.1,2.2,4.5,323.2,0.02,18.8,24.6,"16:22:56",1
"19/09/24","16:40",0.2,23.4,75.3,1008.3,337.0,1.8,4.2,335.7,0.05,18.8,24.5,"16:35:36",1
"19/09/24","16:50",0.0,23.4,74.2,1008.1,326.5,2.8,6.2,335.6,0.04,18.6,24.3,"16:41:52",1
"19/09/24","17:00",0.0,23.4,73.4,1008.6,334.5,2.7,5.6,341.5,0.03,18.4,24.4,"16:56:48",1
"19/09/24","17:10",0.0,23.4,73.1,1008.6,323.6,2.6,4.7,339.2,0.01,18.3,24.3,"17:02:56",1
"19/09/24","17:20",0.0,23.3,73.2,1008.3,327.1,2.3,3.7,333.4,0.02,18.3,24.2,"17:11:28",1
"19/09/24","17:30",0.0,23.0,73.2,1008.8,328.2,3.0,5.2,339.2,0.01,18.0,24.3,"17:26:56",1
"19/09/24","17:40",0.0,23.0,73.6,1008.3,335.9,2.8,6.2,341.1,0.01,18.1,24.1,"17:31:52",1
"19/09/24","17:50",0.0,22.8,73.8,1008.8,329.1,2.3,4.3,345.5,0.00,17.9,24.1,"17:40:16",1
"19/09/24","18:00",0.0,22.6,74.6,1008.8,323.5,2.6,4.7,333.4,0.00,17.9,23.9,"17:53:44",1
"19/09/24","18:10",0.0,22.5,75.4,1009.3,316.3,2.0,4.7,349.9,0.00,18.0,23.9,"18:05:16",1
"19/09/24","18:20",0.0,22.3,76.1,1009.5,323.8,2.3,6.8,322.1,0.00,17.9,23.9,"18:18:40",1
"19/09/24","18:30",0.0,22.2,76.6,1009.5,328.0,2.6,5.2,324.8,0.00,17.9,23.7,"18:24:24",1
"19/09/24","18:40",0.0,22.0,76.8,1009.5,318.6,1.8,4.9,338.3,0.00,17.8,23.8,"18:33:28",1
"19/09/24","18:50",0.0,21.9,77.0,1009.3,324.7,1.7,4.8,359.4,0.00,17.7,23.7,"18:49:14",1
"19/09/24","19:00",0.0,21.9,76.3,1009.7,324.1,2.5,4.8,323.6,0.00,17.6,23.5,"18:54:16",1
"19/09/24","19:10",0.0,21.8,76.1,1010.0,306.3,1.6,3.7,324.9,0.00,17.4,23.5,"19:02:16",1
"19/09/24","19:20",0.0,21.7,76.4,1010.0,321.6,2.0,3.6,334.7,0.00,17.4,23.5,"19:17:12",1
"19/09/24","19:30",0.0,21.6,76.7,1010.2,329.5,1.7,2.8,335.1,0.00,17.4,23.4,"19:29:36",1
"19/09/24","19:40",0.0,21.4,77.2,1010.2,327.8,1.8,3.6,325.0,0.00,17.3,23.3,"19:36:34",1
"19/09/24","19:50",0.0,21.3,77.5,1010.4,313.1,1.7,3.5,325.4,0.00,17.2,23.3,"19:44:32",1
"19/09/24","20:00",0.0,21.2,77.6,1010.4,322.4,2.1,4.4,337.3,0.00,17.2,23.0,"19:58:08",1
"19/09/24","20:10",0.0,21.2,77.4,1010.7,327.7,1.7,4.2,334.8,0.00,17.1,23.0,"20:06:32",1
"19/09/24","20:20",0.0,21.1,77.3,1010.9,341.0,1.1,2.2,343.5,0.00,17.0,23.0,"20:14:16",1
"19/09/24","20:30",0.0,21.1,76.9,1011.2,339.0,1.3,2.9,339.1,0.00,16.9,22.7,"20:27:52",1
"19/09/24","20:40",0.0,21.1,77.0,1010.7,331.9,0.8,1.9,330.4,0.00,17.0,23.0,"20:31:20",1
"19/09/24","20:50",0.0,20.9,77.5,1011.2,311.6,1.3,2.8,30.7,0.00,16.9,22.9,"20:42:40",1
"19/09/24","21:00",0.0,20.8,78.0,1011.2,322.6,1.7,3.7,328.9,0.00,16.9,23.0,"20:55:12",1
"19/09/24","21:10",0.0,20.9,77.6,1011.4,317.9,1.3,2.8,334.0,0.00,16.9,22.7,"21:04:16",1
"19/09/24","21:20",0.0,21.0,77.7,1011.4,325.3,2.0,5.0,341.2,0.00,17.0,22.7,"21:18:08",1
"19/09/24","21:30",0.0,21.0,77.5,1011.4,334.9,1.7,3.1,330.7,0.00,17.0,22.5,"21:23:28",1
"19/09/24","21:40",0.0,20.7,78.0,1011.6,323.9,1.1,2.0,341.0,0.00,16.8,22.8,"21:31:20",1
"19/09/24","21:50",0.0,20.6,79.3,1011.4,329.2,0.7,2.0,359.8,0.00,16.9,22.7,"21:46:08",1
"19/09/24","22:00",0.0,20.8,79.2,1011.6,302.5,1.0,2.6,317.7,0.00,17.1,22.5,"21:56:16",1
"19/09/24","22:10",0.0,20.7,79.5,1011.9,342.7,1.1,1.7,331.9,0.00,17.1,22.4,"22:09:36",1
"19/09/24","22:20",0.2,20.4,80.9,1011.9,318.0,1.1,2.1,323.7,0.00,17.1,22.6,"22:13:20",1
"19/09/24","22:30",0.0,20.3,81.3,1011.9,328.4,0.8,1.8,334.4,0.00,17.0,22.6,"22:25:28",1
"19/09/24","22:40",0.0,20.2,81.5,1012.1,327.3,1.1,2.1,346.4,0.00,17.0,22.6,"22:35:28",1
"19/09/24","22:50",0.0,20.2,81.3,1012.1,338.1,1.2,2.7,328.1,0.00,16.9,22.6,"22:47:20",1
"19/09/24","23:00",0.0,20.2,81.1,1011.9,312.9,1.0,2.0,328.9,0.00,16.9,22.5,"22:50:08",1
"19/09/24","23:10",0.0,20.0,81.6,1011.9,313.7,1.1,2.0,345.3,0.00,16.8,22.4,"23:05:20",1
"19/09/24","23:20",0.0,19.9,82.3,1012.3,291.7,0.8,1.3,311.8,0.00,16.8,22.3,"23:11:20",1
"19/09/24","23:30",0.0,19.9,82.8,1012.6,304.8,1.0,2.2,332.8,0.00,16.9,22.3,"23:20:56",1
"19/09/24","23:40",0.0,20.0,82.3,1012.1,320.7,1.5,2.2,327.9,0.00,16.9,22.2,"23:31:04",1
"19/09/24","23:50",0.0,20.1,81.7,1012.6,333.2,1.5,2.6,318.2,0.00,16.9,22.3,"23:42:32",1
"19/09/24","24:00",0.0,20.0,81.6,1012.3,338.5,1.1,2.2,330.7,0.00,16.8,22.3,"23:57:20",1
